Regional Weather Roundup
Issued by NWS Cleveland, OH

Home | Current Version | Previous Version | Graphics & Text | Print | Product List | Glossary On
Versions: 1 2 3 4 5 6 7 8 9 10 11 12 13 14 15 16 17 18 19 20 21 22 23 24 25 26 27 28 29 30 31 32 33 34 35 36 37 38 39 40 41 42 43 44 45 46 47 48 49 50
000
ASUS41 KCLE 231802
RWRCLE
OHIO REGIONAL WEATHER ROUNDUP
NATIONAL WEATHER SERVICE CLEVELAND, OH
200 PM EDT SUN APR 23 2017

NOTE: "FAIR" INDICATES FEW OR NO CLOUDS BELOW 12,000 FEET WITH NO
SIGNIFICANT WEATHER AND/OR OBSTRUCTIONS TO VISIBILITY.

OHZ001>008-015>018-024>027-034-035-043-044-231900-
   NORTHWEST OHIO

CITY           SKY/WX    TMP DP  RH WIND       PRES   REMARKS
DEFIANCE       SUNNY     62  31  31 E9        30.09F
FINDLAY        SUNNY     64  34  32 VRB7      30.06F
TOLEDO EXPRESS SUNNY     65  21  18 E8        30.08F
TOLEDO EXEC    SUNNY     61  36  39 E8        30.10F
LIMA           SUNNY     65  31  28 NE14      30.05F
$$

OHZ009>014-019>023-028>033-038-089-231900-
   NORTHEAST OHIO

CITY           SKY/WX    TMP DP  RH WIND       PRES   REMARKS
CLE-HOPKINS    MOSUNNY   62  41  46 N9        30.11F
CLE-LAKEFRONT  SUNNY     52  43  71 N8        30.09F
CUY CO. ARPT   SUNNY     61  39  44 N10       30.10F
LORAIN-ELYRIA  SUNNY     60  39  45 N9        30.08F
ASHTABULA      SUNNY     63  36  36 VRB3      30.09F
AKRON-CANTON   MOSUNNY   64  34  32 E9        30.07F
WOOSTER        SUNNY     63  36  36 NE12      30.07F
MANSFIELD      SUNNY     64  32  30 NE8       30.05F
YOUNGSTOWN     MOSUNNY   63  31  30 MISG      30.07F
$$

OHZ042-051>053-060>062-070>072-077>081-231900-
  SOUTHWEST OHIO

CITY           SKY/WX    TMP DP  RH WIND       PRES   REMARKS
CINC-COVINGTON CLOUDY    59  36  42 NE17      29.98F
CINC-LUNKEN    CLOUDY    60  42  51 NE14G21   30.00F
HAMILTON       CLOUDY    63  39  41 E13G20    30.01S
DAYTON         CLOUDY    66  34  30 NE13      30.02F
WRIGHT-PAT AFB CLOUDY    67  31  26 NE13      30.01F
DAYTON GENERAL PTSUNNY   62  34  35 E14G22    30.01R
WILMINGTON     CLOUDY    59  39  47 NE9       30.02R
$$

OHZ036-037-039>041-045>050-054>059-063>069-073>076-082>088-231900-
  CENTRAL AND SOUTHEAST OHIO

CITY           SKY/WX    TMP DP  RH WIND       PRES   REMARKS
COLUMBUS       MOSUNNY   68  36  30 NE12      30.01F
OSU AIRPORT    SUNNY     66  32  28 NE12G18   30.02F
BOLTON FIELD   SUNNY     66  36  32 E10G17    30.03F
RICKENBACK AFB SUNNY     64  38  38 E10G20    30.02R
NEWARK         MOSUNNY   67  34  29 E14       30.01F
MARION         SUNNY     68  29  23 NE15      30.03F
LANCASTER      MOSUNNY   64  35  34 E16       30.02F
ZANESVILLE     MOSUNNY   66  33  29 NE15      30.02F
NEW PHILLY     NOT AVBL
$$



USA.gov is the U.S. government's official web portal to all federal, state and local government web resources and services.